SCP
0 0 0 0 0 0 0 0 0 0 0 0 0 0 0 0 0 0 0 0 0 0 0 0 0 0 0 0 0 0 1 0 0 0 0 0 0 0
0 0 0 0 0 0 0 0 0 0 0 0 0 0 0 0 0 0 0 0 0 0 0 0 0 0 0 0 0 1 0 0 0 0 0 0 0 0
0 0 0 0 0 0 0 0 0 0 0 0 0 0 0 0 0 0 0 0 0 0 0 0 0 0 0 0 0 1 0 0 0 0 0 0 0 0
0 0 0 0 0 0 0 0 0 0 0 0 0 0 0 0 0 0 0 0 0 0 0 0 0 0 0 0 0 0 0 0 0 0 0 0 0 0
0 0 0 0 0 0 0 0 0 0 0 0 0 0 0 0 0 0 0 0 0 0 0 0 0 0 0 0 0 0 0 0 0 0 0 0 0 0
0 0 0 0 0 0 0 0 0 0 0 0 0 0 0 0 0 0 0 0 0 0 0 0 0 0 0 0 0 0 0 0 0 0 0 0 0 0
0 0 0 0 0 0 0 0 0 0 0 0 0 0 0 0 0 0 0 0 0 0 0 0 0 0 0 0 0 0 0 0 0 0 0 0 0 0
0 0 0 0 0 0 0 0 0 0 0 0 0 0 0 0 0 0 0 0 0 0 0 0 0 0 0 0 0 0 0 0 0 0 0 0 0 0
0 0 0 0 0 0 0 0 0 0 0 0 0 0 0 0 0 0 0 0 0 0 0 0 0 0 0 0 0 0 0 0 0 0 0 0 0 0
0 0 0 0 0 0 0 0 0 0 0 0 0 0 0 0 0 0 0 0 0 0 0 0 0 0 0 0 0 0 0 0 0 0 0 0 0 0
0 0 0 0 0 0 0 0 0 0 0 0 0 0 0 0 0 0 0 0 0 0 0 0 0 0 0 0 0 0 0 0 0 0 0 0 0 0
0 0 0 0 0 0 0 0 0 0 0 0 0 0 0 0 0 0 0 0 0 0 0 0 0 0 0 0 0 0 0 0 0 0 0 0 0 0
0 0 0 0 0 0 0 0 0 0 0 0 0 0 0 0 0 0 0 0 0 0 0 0 0 0 0 0 0 0 0 0 0 0 0 0 0 0
0 0 0 0 0 0 0 0 0 0 0 0 0 0 0 0 0 0 0 0 0 0 0 0 0 0 0 0 0 0 0 0 0 0 0 0 0 0
0 0 0 0 0 0 0 0 0 0 0 0 0 0 0 0 0 0 0 0 0 0 0 0 0 0 0 0 0 0 0 0 0 0 0 0 0 0
0 0 0 0 0 0 0 0 0 0 0 0 0 0 0 0 0 0 0 0 0 0 0 0 0 0 0 0 0 0 0 0 0 0 0 0 0 0
0 0 0 0 0 0 0 0 0 0 0 0 0 0 0 0 0 0 0 0 0 0 0 0 0 0 0 0 0 0 0 0 0 0 0 0 0 0
0 0 0 0 0 0 0 0 0 0 0 0 0 0 0 0 0 0 0 0 0 0 0 0 0 0 0 0 0 0 0 0 0 0 0 0 0 0
0 0 0 0 0 0 0 0 0 0 0 0 0 0 0 0 0 0 0 0 0 0 0 0 0 0 0 0 0 0 0 0 0 0 0 0 0 0
0 0 0 0 0 0 0 0 0 0 0 0 0 0 0 0 0 0 0 0 0 0 0 0 0 0 0 0 0 0 0 0 0 0 0 0 0 0
0 0 0 0 0 0 0 0 0 0 0 0 0 0 0 0 0 0 0 0 0 0 0 0 0 0 0 0 0 0 0 0 0 0 0 0 0 0
0 0 0 0 0 0 0 0 0 0 0 0 0 0 0 0 0 0 0 0 0 0 0 0 0 0 0 0 0 0 0 0 0 0 0 0 0 0
0 0 0 0 0 0 0 0 0 0 0 0 0 0 0 0 0 0 0 0 0 0 0 0 0 0 0 0 0 0 0 0 0 0 0 0 0 0
Wind_Speed
12 13 12 10 9 9 8 8 8 11 11 8 8 9 10 9 17 14 14 23 28 29 28 27 25 23 22 20 19 17 16 14 13 13 13 14 14 14
9 12 13 10 9 8 9 9 10 11 14 5 8 7 9 10 16 14 14 22 26 28 28 26 25 24 22 20 19 17 15 14 14 13 13 14 14 15
10 12 13 11 10 9 9 9 10 11 17 12 5 6 9 10 10 11 10 12 12 25 27 26 25 23 22 20 18 16 15 13 13 13 14 14 14 15
12 11 12 9 12 10 9 10 10 11 12 16 6 5 9 9 9 10 9 10 10 19 25 26 24 23 21 19 18 15 13 12 12 13 13 14 14 15
10 11 11 9 11 9 10 10 9 9 11 12 10 4 4 4 6 6 7 7 8 13 20 22 22 21 20 18 17 14 12 11 12 13 13 13 14 15
9 9 9 9 10 9 9 10 9 9 9 10 9 4 3 3 5 7 7 8 7 7 12 13 16 19 18 17 15 12 11 12 12 12 12 12 13 13
8 8 8 9 10 9 7 7 7 8 8 8 8 5 5 5 6 6 7 5 5 5 6 6 6 6 8 12 12 11 12 12 12 12 11 11 11 12
8 7 7 7 9 11 13 12 11 9 9 8 8 8 8 7 5 6 5 5 4 5 6 6 5 6 5 5 10 13 13 13 12 11 10 9 10 10
7 6 5 5 6 6 9 11 11 13 14 10 10 9 6 6 7 8 7 6 4 5 6 5 5 6 5 7 14 14 13 11 10 9 8 8 8 9
6 6 6 5 4 5 5 6 6 6 8 7 7 4 3 5 7 7 6 5 4 4 5 4 4 4 3 4 10 12 11 9 8 6 6 7 8 9
4 4 4 4 6 7 6 5 5 4 6 5 3 2 4 7 8 5 6 5 3 2 2 3 3 2 1 1 3 7 7 6 5 5 6 7 8 8
2 2 3 4 5 6 3 3 4 3 2 1 1 1 3 5 9 6 6 5 3 2 3 3 3 3 1 0 1 1 1 2 3 4 5 5 6 3
2 1 2 3 3 3 2 1 2 1 0 1 1 2 2 2 3 3 3 3 3 2 4 4 3 2 2 2 1 1 1 1 1 1 2 5 7 5
2 1 1 2 2 3 2 1 1 1 1 2 2 2 2 2 2 3 3 3 3 3 4 4 3 3 3 2 2 1 1 1 1 1 0 4 6 9
0 1 1 3 3 3 4 5 3 2 2 2 2 2 2 2 3 3 4 5 6 6 4 3 3 3 2 3 2 2 1 1 1 1 1 2 3 3
1 2 4 6 5 5 4 4 3 3 2 2 2 2 2 3 3 2 2 2 2 3 4 4 3 3 2 1 2 2 2 2 1 1 2 2 3 4
3 3 3 3 3 4 4 4 4 3 3 2 2 2 2 2 2 2 2 2 1 1 1 2 4 4 2 2 2 2 2 2 2 1 1 3 4 5
4 3 3 3 4 4 4 4 4 4 4 3 3 2 2 2 2 1 1 1 1 1 1 1 1 2 2 2 2 2 2 2 1 2 2 2 4 4
5 4 3 3 3 3 4 3 3 4 3 3 3 3 2 2 2 1 1 1 1 1 1 1 1 2 1 2 2 2 2 2 1 1 2 3 4 5
4 4 3 3 3 3 3 3 3 3 3 3 3 3 3 2 2 1 1 0 0 0 1 1 1 2 3 2 1 1 2 2 2 2 2 3 5 9
4 4 3 3 3 3 3 3 3 3 3 3 3 3 2 2 2 1 1 1 1 0 1 1 0 1 2 2 1 2 2 3 3 3 3 3 4 3
3 3 3 3 3 3 3 3 3 3 3 3 3 3 2 2 2 1 1 1 0 0 0 0 1 1 1 2 2 2 2 3 5 9 9 7 3 3
3 3 2 3 2 2 2 3 3 2 2 2 2 2 2 2 2 1 1 1 1 0 1 0 0 1 0 1 1 1 2 3 3 4 4 7 10 13
Wind_Direction
228 228 231 233 227 225 220 217 240 270 268 214 217 222 220 218 225 222 222 229 230 233 233 232 231 231 233 235 237 241 247 254 261 269 278 284 291 296
228 229 231 232 231 226 224 224 226 246 271 236 214 210 207 217 223 220 222 226 230 231 231 231 231 230 231 233 235 240 246 254 262 272 279 286 292 297
236 233 235 229 231 230 227 228 229 232 258 268 216 201 201 214 218 216 216 218 223 228 230 230 229 228 229 230 233 237 244 253 263 272 279 286 292 297
245 241 241 233 233 233 231 232 233 230 245 266 258 205 210 211 211 211 212 214 216 224 226 228 228 227 227 228 231 235 242 252 262 270 278 285 290 296
250 246 245 236 239 236 234 238 238 237 238 254 263 218 207 196 202 209 208 210 212 220 225 227 227 226 225 227 229 230 238 249 259 265 272 280 287 293
253 249 246 239 243 241 242 243 244 246 243 249 257 232 195 178 189 203 211 207 208 204 216 219 223 224 223 225 225 227 235 247 256 261 268 276 284 291
258 253 250 248 248 247 248 252 249 254 253 251 252 234 205 188 203 197 207 195 198 189 195 200 203 205 208 220 222 225 236 244 250 257 264 274 282 289
262 259 255 253 256 259 260 259 256 257 259 254 253 244 230 210 193 186 181 172 193 182 183 192 185 197 195 197 218 228 235 241 246 253 261 271 282 291
257 259 257 250 251 256 265 269 267 264 262 262 261 253 231 197 184 186 187 183 180 159 168 185 185 202 194 208 220 228 234 236 239 247 260 271 281 290
256 252 255 261 252 258 262 266 268 271 273 265 257 251 212 184 186 183 175 148 97 142 161 176 172 189 181 194 222 228 227 228 233 245 262 274 284 292
265 258 257 263 271 273 268 270 280 285 296 288 269 214 181 173 162 146 148 148 141 156 159 153 145 137 131 177 228 223 216 216 227 254 272 280 290 304
279 274 269 272 281 284 266 264 278 291 314 334 351 119 143 161 164 159 159 161 141 160 167 149 137 134 153 124 106 102 187 211 235 267 277 287 298 312
275 285 293 308 310 316 300 264 269 291 61 89 84 92 104 121 140 139 141 149 151 152 155 147 143 150 155 152 158 145 139 115 61 334 308 298 301 306
266 280 299 355 18 23 22 35 55 76 88 90 88 85 89 92 92 97 95 78 72 102 145 143 145 158 153 162 191 161 140 135 142 164 295 306 309 306
174 121 70 58 56 44 51 63 61 67 84 87 84 69 65 82 85 80 72 74 64 58 78 90 118 135 148 169 166 156 172 193 183 191 235 269 282 293
70 61 66 66 64 59 53 50 47 57 78 87 81 67 65 72 74 75 84 85 81 56 47 56 78 121 143 150 157 176 177 193 189 216 249 266 271 269
98 62 47 45 45 44 44 41 41 46 52 56 74 75 73 75 66 60 80 91 109 128 87 49 54 57 67 130 165 193 193 207 217 230 245 270 269 267
90 69 62 56 52 46 47 44 41 37 33 44 59 63 70 76 73 60 69 102 132 138 136 127 101 64 39 352 207 191 197 217 230 234 232 257 274 269
76 70 66 59 54 49 49 48 40 27 27 44 53 52 55 60 71 73 71 74 85 97 113 129 140 145 174 267 291 208 184 196 210 235 237 236 267 281
63 69 65 57 54 55 51 49 47 39 41 48 51 50 50 55 57 56 58 75 117 109 103 126 179 189 202 220 223 280 260 206 203 241 258 262 269 284
59 59 56 54 50 48 48 49 51 49 45 48 48 44 38 48 55 49 46 51 71 135 205 227 241 111 100 87 67 293 288 273 265 254 261 278 285 281
68 66 57 54 51 49 47 50 53 50 44 44 41 36 30 40 52 46 45 45 12 246 231 34 60 84 123 187 232 254 277 304 307 299 284 263 245 256
68 66 60 52 47 45 48 54 58 52 45 44 40 34 33 35 29 36 41 48 63 68 77 77 50 57 122 213 242 263 280 296 303 309 296 297 294 288